P/2011 N1 ( ASH )

Japanese version
Home page
Updated on February 3, 2013

---------------------------------------------------------------------

* Profile

Discovery Date July 1, 2011
Magnitude 19.9 mag
Discoverer Ignacio de la Cueva (Ibiza, Spain), J. L. Ortiz, P. Santos-Sanz, N. Morales (San Pedro de Atacama, Chile)

* Pictures

* Orbital Elements

Epoch 2012 June 2.0 TT = JDT 2456080.5
T 2012 May 31.09478 TT                                  MPC
q   2.8579034            (2000.0)            P               Q
n   0.06227915     Peri.  331.02252     +0.57118368     -0.59084917
a   6.3033911      Node    77.67651     +0.81945728     +0.37045336
e   0.5466086      Incl.   35.67705     +0.04731772     +0.71670187
P  15.8
From 230 observations 2011 July 1-2012 Oct. 16, mean residual 0".4.

* Finding Charts

* Magnitudes Graph

        m1 = 8.2 + 5 log d + 15.0 log r(t + 170)

        * Gray curve is:  m1 = 10.0 + 5 log d + 10.0 log r

---------------------------------------------------------------------

The orbital elements are published on M.P.E.C. 2012-U109.
The charts are made with StellaNavigator Ver.8 (AstroArts).
The magnitudes graphs are made with Comet for Windows.

---------------------------------------------------------------------

Copyright(C) Seiichi Yoshida (comet@aerith.net). All rights reserved.